Location: Bijele Vode
(45.2833°N, 16.2000°E)
Time: 14:16:14
(UTC+00:00)

Cosmos 2263 Rocket - Pass Details

Date: 18 September 2020
Orbit: 822 x 850 km, 71.0° (Epoch: 30 October)

Event Time Altitude Azimuth Distance (km) Brightness Sun altitude
Rises 17:47:11 0° 204° (SSW) 3,342 5.5 -9.1°
Reaches altitude 10° 17:49:36 10° 205° (SSW) 2,415 4.8 -9.5°
Maximum altitude 17:55:08 89° 292° (WNW) 832 2.2 -10.5°
Drops below altitude 10° 18:00:45 10° 26° (NNE) 2,443 4.5 -11.4°
Sets 18:03:12 0° 26° (NNE) 3,384 5.2 -11.8°
